Fort Stockton, TX

8:52 PM CDT on September 23, 2017 (GMT -0500)
Fort Stockton-Pecos County

Weather History for KFST - January, 2012

Change the Weather History Date:

Monday, January 2, 2012

  Actual Average Record
Temperature  
Mean Temperature 42 °F -  
Max Temperature 54 °F 59 °F 82 °F (1997)
Min Temperature 30 °F 35 °F 24 °F (2008)
Degree Days  
Heating Degree Days 23    
Moisture  
Dew Point 13 °F    
Average Humidity 35    
Maximum Humidity 56    
Minimum Humidity 14    
Precipitation  
Precipitation 0.00 in - - ()
Sea Level Pressure  
Sea Level Pressure 30.59 in    
Wind  
Wind Speed 7 mph (SE)    
Max Wind Speed 13 mph    
Max Gust Speed 17 mph    
Visibility 10 miles    
Events      
Averages and records for this station are not official NWS values.
T = Trace of Precipitation, MM = Missing Value Source: NWS Daily Summary

Daily Weather History Graph

Daily Weather History Graph

Search for Another Location

Airport or City:

Trip Planner

Search our weather history database for the weather conditions in past years. The results will help you decide how hot, cold, wet, or windy it might be!

Date:

Astronomy

Jan. 02, 2012 Rise Set
Actual Time 7:49 AM CST 6:01 PM CST
Civil Twilight 7:23 AM CST 6:27 PM CST
Nautical Twilight 6:53 AM CST 6:58 PM CST
Astronomical Twilight 6:23 AM CST 7:27 PM CST
Moon 1:09 PM CST (1/2) 1:55 AM CST (1/2)
Length of Visible Light 11h 04m
Length of Day
10h 11m
Waxing Gibbous, 64% of the Moon is Illuminated
Jan 2
Waxing Gibbous
Jan 9
Full
Jan 16
Last Quarter
Jan 23
New
Jan 30
First Quarter

Hourly Weather History & Observations

Time (CST) Temp. Windchill Dew Point Humidity Pressure Visibility Wind Dir Wind Speed Gust Speed Precip Events Conditions
12:53 AM 35.1 °F 29.3 °F 16.0 °F 46% 30.58 in 10.0 mi South 6.9 mph - N/A   Clear
1:53 AM 34.0 °F 28.0 °F 15.1 °F 46% 30.58 in 10.0 mi SSE 6.9 mph - N/A   Clear
2:53 AM 33.1 °F 26.1 °F 15.1 °F 48% 30.59 in 10.0 mi South 8.1 mph - N/A   Clear
3:53 AM 30.0 °F 26.5 °F 15.1 °F 54% 30.61 in 10.0 mi ESE 3.5 mph - N/A   Clear
4:53 AM 30.9 °F 26.2 °F 16.0 °F 54% 30.61 in 10.0 mi South 4.6 mph - N/A   Clear
5:53 AM 30.9 °F 24.3 °F 16.0 °F 54% 30.61 in 10.0 mi SSE 6.9 mph - N/A   Clear
6:53 AM 33.1 °F 26.1 °F 18.0 °F 54% 30.63 in 10.0 mi SSE 8.1 mph - N/A   Clear
7:53 AM 32.0 °F 25.6 °F 18.0 °F 56% 30.66 in 10.0 mi South 6.9 mph - N/A   Clear
9:53 AM 39.9 °F 34.5 °F 19.9 °F 45% 30.72 in 10.0 mi NE 8.1 mph - N/A   Clear
10:53 AM 44.1 °F 37.7 °F 18.0 °F 35% 30.71 in 10.0 mi ESE 12.7 mph - N/A   Clear
11:53 AM 48.0 °F - 15.1 °F 27% 30.68 in 10.0 mi ESE 6.9 mph - N/A   Clear
12:53 PM 51.1 °F - 5.0 °F 15% 30.63 in 10.0 mi East 8.1 mph - N/A   Clear
1:53 PM 52.0 °F - 3.9 °F 14% 30.59 in 10.0 mi ESE 6.9 mph - N/A   Clear
2:53 PM 53.1 °F - 5.0 °F 14% 30.57 in 10.0 mi East 8.1 mph 17.3 mph N/A   Clear
3:53 PM 54.0 °F - 6.1 °F 15% 30.55 in 10.0 mi East 9.2 mph - N/A   Clear
4:53 PM 53.1 °F - 7.0 °F 16% 30.54 in 10.0 mi ESE 9.2 mph - N/A   Clear
6:53 PM 48.0 °F - 8.1 °F 20% 30.53 in 10.0 mi SE 5.8 mph - N/A   Clear
7:53 PM 43.0 °F 39.5 °F 10.9 °F 27% 30.55 in 10.0 mi SSE 5.8 mph - N/A   Clear
8:53 PM 39.0 °F 34.0 °F 10.9 °F 32% 30.54 in 10.0 mi SE 6.9 mph - N/A   Clear
9:53 PM 39.0 °F 32.8 °F 10.9 °F 32% 30.53 in 10.0 mi South 9.2 mph - N/A   Clear
10:53 PM 37.9 °F 31.5 °F 12.9 °F 36% 30.52 in 10.0 mi SSE 9.2 mph - N/A   Clear
11:53 PM 37.0 °F 30.4 °F 15.1 °F 41% 30.50 in 10.0 mi SSE 9.2 mph - N/A   Clear